Regional Weather Roundup
Issued by NWS Pendleton, OR

Home | Current Version | Previous Version | Text Only | Print | Product List | Glossary On
Versions: 1 2 3 4 5 6 7 8 9 10 11 12 13 14 15 16 17 18 19 20 21 22 23 24 25 26 27 28 29 30 31 32 33 34 35 36 37 38 39 40 41 42 43 44 45 46 47 48 49 50
108
ASUS46 KPDT 110325
RWRPDT
PENDLETON REGIONAL WEATHER ROUNDUP
NATIONAL WEATHER SERVICE PENDLETON OREGON
700 PM PST SAT DEC 10 2016

NOTE: FAIR INDICATES FEW OR NO CLOUDS BELOW 12,000 FEET WITH NO
SIGNIFICANT WEATHER AND/OR OBSTRUCTIONS TO VISIBILITY.

# INDICATES UNOFFICIAL STATION AND DATA

WAZ520-110410-
EAST SLOPES OF WASHINGTON CASCADES

CITY            SKY/WX      TMP DP  RH  WIND    PRES   REMARKS
#CLE ELUM HS    N/A         18  15  88  SE1     29.86R
#CLE ELUM LAKE  N/A         17  15  92  CALM    30.00R
#GLENWOOD       N/A         33  32  96  S1      29.98S
#MANASTASH CYN  N/A         13   8  80  CALM    29.83S
#NELSON 3SW     N/A         16  14  92  CALM    30.23R
#RONALD 2NW     N/A         19  N/A N/A CALM    29.83R
#TEANAWAY 4NE   N/A         18  16  92  CALM    N/A
#TROUT LAKE 1NE N/A         32  31  96  CALM    29.99S
#TROUT LAKE 1E  N/A         32  31  96  CALM    29.91R
$$

WAZ521-110410-
SIMCOE HIGHLANDS

CITY            SKY/WX      TMP DP  RH  WIND    PRES   REMARKS
#CENTERVILLE 1SWN/A         20  17  88  CALM    30.00R
#GOLDENDALE 1NE N/A         28  26  92  CALM    N/A
#GOLDENDALE 4W  N/A         26  14  60  CALM    29.94S
#LYLE 6NE       N/A         29  28  96  CALM    29.98S
$$

WAZ026-110410-
KITTITAS VALLEY

CITY            SKY/WX      TMP DP  RH  WIND    PRES   REMARKS
ELLENSBURG AP   CLOUDY      19  16  88  CALM    29.91S
#ELLENSBURG CWU N/A         18  16  92  N2      29.98S
#ELLENSBURG 3NE N/A         17  15  92  CALM    28.00S
#ELLENSBURG 1E  N/A         18  N/A N/A CALM    N/A
#KITTITAS 4N    N/A         19  15  84  NW1     29.95R
#KITTITAS 3S    N/A         17  15  92  CALM    30.03S
#THORP 6N       N/A         16  14  92  E3      30.06S
$$

WAZ027-110410-
YAKIMA VALLEY

CITY            SKY/WX      TMP DP  RH  WIND    PRES   REMARKS
SUNNYSIDE AP    CLOUDY      21  19  92  W5      29.99S
YAKIMA AIRPORT  CLOUDY      21  17  84  SW6     29.96F
YAKIMA-VAGABOND CLOUDY      19  16  88  NW3     29.93R FOG
#DONALD 2NE     N/A         20  11  67  S2      28.81S
#GRANDVIEW      N/A         22  18  84  CALM    30.05S
#MABTON         N/A         23  21  92  NW1     29.99S
#NACHES 2SW     N/A         16  14  92  CALM    29.90R
#TERRACE HTS    N/A         21  19  92  CALM    30.00F
#TOPPENISH      N/A         21  19  92  CALM    29.95F
#WEST VALLEY    N/A         18  15  88  CALM    30.03S
#W YAKIMA       N/A         20  17  88  CALM    30.06S
#WHITE SWAN 5E  N/A         21  19  92  CALM    30.06S
#WILEY CITY 3W  N/A         16  10  77  CALM    29.90S
$$

WAZ028-110410-
LOWER COLUMBIA BASIN...WASHINGTON

CITY            SKY/WX      TMP DP  RH  WIND    PRES   REMARKS
PASCO           CLOUDY      27  26  96  CALM    30.01S
PROSSER AWOS    N/A         23  21  92  W5      30.01F
RICHLAND AWOS   CLOUDY      28  23  81  NW3     30.00F
#BENTON CITY    N/A         25  21  84  CALM    29.93S
#CONNELL 5N     N/A         24  22  92  CALM    30.03R
#CONNELL 5NW    N/A         24  22  92  CALM    29.99S
#ELTOPIA 6NW    N/A         26  25  96  CALM    28.94S
#KAHLOTUS       N/A         24  21  88  CALM    30.02S
#KENNEWICK 3S   N/A         26  23  88  CALM    30.03S
#PATERSON       N/A         26  22  85  CALM    29.99F
#TOUCHET 2S     N/A         20  18  92  CALM    30.01S
#WEST PASCO     N/A         29  26  88  CALM    30.01S
$$

WAZ029-110410-
FOOTHILLS OF THE BLUES...WASHINGTON

CITY            SKY/WX      TMP DP  RH  WIND    PRES   REMARKS
WALLA WALLA AP  MXD PCPN    26  21  81  E13     29.93F WCI 15
#CLYDE 6NW      N/A         24  22  92  CALM    30.02S
#DAYTON SCHOOL  N/A         24  17  74  N1      29.96R
#LOWDEN 2SE     N/A         22  20  92  CALM    29.96S
#PLEASANT VIEW 1N/A         23  21  92  CALM    30.07S
#PRESCOTT       N/A         24  21  88  CALM    30.01S
#WHITMAN COLLEGEN/A         26  23  88  SW2     30.06F
#WAITSBURG 5S   N/A         30  28  92  S5      30.12S
#WAITSBURG 8N   N/A         29  N/A N/A S5      29.93R
#WALLA WALLA 5E N/A         30  27  88  N3      N/A
#WALLA WALLA U  N/A         26  23  88  CALM    30.02S
#WHITMAN MISSIONN/A         23  21  92  CALM    30.03S
$$

WAZ030-110410-
BLUE MOUNTAINS...WASHINGTON

CITY            SKY/WX      TMP DP  RH  WIND    PRES   REMARKS
#DIXIE 5SE      N/A         18  16  92  S1      29.81R
$$

ORZ009-041-WAZ024-110410-
COLUMBIA RIVER GORGE

CITY            SKY/WX      TMP DP  RH  WIND    PRES   REMARKS
HOOD RIVER AP   LGT SNOW    28  28  100 CALM    29.97S
THE DALLES AP   MXD PCPN    25  21  84  CALM    30.01S
#ARLINGTON AIRPON/A         23  21  92  CALM    30.04R
#ARLINGTON HS   N/A         20  15  81  CALM    29.96S
#CELILO DOT     N/A         28  21  75  E1      N/A
#LYLE           N/A         29  27  92  CALM    30.02F
#MOSIER 1S      N/A         27  20  74  CALM    N/A
#MURDOCK        N/A         26  23  88  E1      30.00R
#RUFUS DOT      N/A         27  21  78  S7      N/A
#SMITHVILLE     N/A         26  23  88  NW2     29.97R

$$

ORZ510-110410-
NORTH CENTRAL OREGON

CITY            SKY/WX      TMP DP  RH  WIND    PRES   REMARKS
#ANTELOPE       N/A         22  18  84  NE3     29.94S
#CHENOWITH 1W   N/A         30  30  100 S1      N/A
#COW CYN RST AREN/A         31  N/A N/A SW8     N/A
#DUFUR 9E       N/A         36  31  82  S16     30.06S WCI 26
#GRASS VALLEY 1SN/A         31  27  85  S9      29.85R
#KENT DOT       N/A         30  19  63  N13     N/A    WCI 20
#MAUPIN SCHOOL  N/A         21  17  84  CALM    30.00R
#MORO SCHOOL    N/A         33  30  89  CALM    29.90R
#SHANIKO 5WSW   N/A         30  18  60  N14     N/A    WCI 19
#SHANIKO 4NW    N/A         29  24  81  SW3     29.88R
#TYGH VALLEY 2NEN/A         20  18  92  CALM    30.04R
#WAPANITIA AIRPON/A         34  30  85  SW7     30.05R
#WASCO DOT      N/A         24  19  81  S2      N/A
#WASCO 5NE      N/A         21  19  92  CALM    30.02S
$$

ORZ511-110410-
CENTRAL OREGON

CITY            SKY/WX      TMP DP  RH  WIND    PRES   REMARKS
BEND AIRPORT    PTCLDY      34  27  75  SW14    29.94R WCI 25
MADRAS AIRPORT  PTCLDY      36  28  72  SW20    29.94S WCI 25
PRINEVILLE AP   LGT MXD PCP 30  25  81  VRB3    29.95R
REDMOND AIRPORT CLOUDY      34  24  66  CALM    29.94R
#ASHWOOD SCHOOL N/A         37  29  72  S5      29.90S
#BEND-AWBREY    N/A         33  30  89  SW7     30.00R
#BEND-KIM LN    N/A         31  26  81  N1      29.85R
#CULVER         N/A         35  29  78  S12     30.01S WCI 27
#CULVER 8W      N/A         33  29  85  CALM    29.94R
#LAKE BILLY CHINN/A         34  N/A N/A S12     30.05R WCI 25
#MADRAS 4S      N/A         N/A N/A N/A NW2     30.02S
#POWELL BUTTE 3EN/A         30  22  72  S2      N/A
#POWELL BUTTE   N/A         33  23  66  W2      29.91R
#PRINEVILLE 3N  N/A         30  26  85  CALM    30.03R

$$


ORZ509-110410-
EAST SLOPES OF OREGON CASCADES

CITY            SKY/WX      TMP DP  RH  WIND    PRES   REMARKS
SISTERS AWOS    N/A         32  30  92  CALM    29.90S
#BLUE BOX PASS  N/A         30  N/A N/A NW1     N/A
#LA PINE 4NW    N/A         30  24  78  CALM    30.05R
#LAVA BUTTE DOT N/A         30  23  75  CALM    N/A
#SISTERS AIRPOR N/A         31  31  100 N1      30.17S
#SISTERS ODOT   N/A         N/A N/A N/A CALM    N/A
#SISTERS 3N     N/A         28  23  81  CALM    29.94S
#SUNRIVER       N/A         32  27  82  S1      30.02R
#TUMALO 3W      N/A         32  27  82  CALM    29.87R
#WANOGA BUTTE D N/A         24  22  92  W8      N/A

$$

ORZ044-110410-
LOWER COLUMBIA BASIN...OREGON

CITY            SKY/WX      TMP DP  RH  WIND    PRES   REMARKS
HERMISTON       PTCLDY      20  18  92  CALM    29.97R FOG
#BOARDMAN SCHOOLN/A         20  17  88  SE1     30.01R
#BOARDMAN 8SW   N/A         19  15  84  CALM    30.01S
#ECHO 8SW       N/A         20  15  81  CALM    29.98R
#I-84 EX 198 DOTN/A         31  24  75  SW9     N/A
#UMATILLA       N/A         26  20  78  CALM    29.94S
$$

ORZ507-110410-
NORTHERN FOOTHILLS OF THE BLUES

CITY            SKY/WX      TMP DP  RH  WIND    PRES   REMARKS
PENDLETON AIRPT PTCLDY      29  24  81  S7      29.92S
#ADAMS 3WNW     N/A         27  24  88  CALM    30.02S
#ATHENA         N/A         33  29  85  CALM    30.05S
#CAYUSE         N/A         36  30  79  E5      30.00F
#HELIX SCHOOL   N/A         25  23  92  CALM    30.04S
#HELIX 3N       N/A         30  27  88  SE9     29.88F
#HOLDMAN 5SE    N/A         29  25  85  CALM    29.92S
#HOLDMAN 6E     N/A         30  26  85  CALM    29.82S
#M-F GROVE ELEM N/A         26  20  78  CALM    29.91F
#M-FREEWATER 5SEN/A         34  30  85  CALM    29.92F
#PENDLETON DNTN N/A         25  18  74  CALM    29.95S
#PDT AQUATIC CTRN/A         24  20  84  CALM    29.93F
#PDT SUNRIDGE   N/A         22  20  92  CALM    29.96S
#PENDLETON 7NW  N/A         26  21  81  E8      30.84S
#PILOT ROCK 1S  N/A         30  20  66  SE5     29.93F
#PILOT ROCK     N/A         31  26  81  CALM    29.94S
#TUTUILLA       N/A         22  18  84  CALM    30.00S
#UMAPINE 2E     N/A         24  22  92  CALM    29.94F
#WESTON SCHOOL  N/A         37  26  64  SW2     29.83S

$$

ORZ508-110410-
SOUTHERN FOOTHILLS OF THE BLUES

CITY            SKY/WX      TMP DP  RH  WIND    PRES   REMARKS
LEXINGTON       PTCLDY      34  27  75  SW3     29.95S
#AJAX           N/A         35  22  59  SE9     27.66S
#CONDON SCHOOL  N/A         30  25  81  SW9     29.85S
#CONDON 5W      N/A         30  23  75  SW12    29.85S WCI 20
#HEPPNER EOC    N/A         37  27  67  SW6     29.95S
#HEPPNER 4NE    N/A         33  26  75  CALM    30.03S
#LEXINGTON 2SE  N/A         33  25  72  CALM    29.89S
#MIKKALO        N/A         19  14  80  CALM    30.02S
#OLEX 4N        N/A         22  20  92  CALM    29.95R
#RUGGS 2SW      N/A         33  25  72  W13     30.04F WCI 24

$$

ORZ502-503-110410-
BLUE MOUNTAINS

CITY            SKY/WX      TMP DP  RH  WIND    PRES   REMARKS
MEACHAM         PTCLDY      26  22  85  CALM    29.88S
#BATTLE MTN DOT N/A         27  25  92  SE3     N/A
#HEPPNER 15SE   N/A         29  24  81  NW5     29.88S
#LADD CYN SMT   N/A         25  24  96  SE6     N/A
#LADD CREEK ODOTN/A         27  -8  21  S2      N/A
#LONG CREEK HS  N/A         31  30  96  CALM    29.90S
#PIKES PEAK     N/A         30  26  85  S14     27.99S WCI 19
#TOLLGATE       N/A         24  23  96  CALM    29.71F
#TROY SCHOOL    N/A         28  25  88  CALM    29.89R
#UKIAH          N/A         29  27  92  NE1     29.91S
#WESTON 4E      N/A         31  27  85  SE3     29.98S
$$

ORZ505-110410-
JOHN DAY BASIN

CITY            SKY/WX      TMP DP  RH  WIND    PRES   REMARKS
JOHN DAY        CLOUDY      33  30  89  W3      29.92S
#ANTELOPE 9ESE  N/A         22  20  92  SW5     N/A
#DAYVILLE SCHOOLN/A         32  28  85  CALM    29.92R
#MITCHELL       N/A         30  28  92  CALM    30.10R
#MITCHELL 8NW   N/A         34  23  64  W2      29.86S
#MONUMENT HS    N/A         29  26  88  CALM    29.96R
#MT. VERNON 5SE N/A         31  28  88  S1      29.86R
#SPRAY SCHOOL   N/A         27  N/A N/A CALM    N/A
$$

ORZ506-110410-
OCHOCO AND JOHN DAY HIGHLANDS

CITY            SKY/WX      TMP DP  RH  WIND    PRES   REMARKS
#HORSE RIDGE DO N/A         N/A N/A N/A CALM    N/A
#KEYES SMT DOT  N/A         30  23  75  S14     N/A    WCI 19
#PAULINA SCHOOL N/A         28  22  78  SW2     N/A
#PINE MTN OBS   N/A         23  21  92  SE2     N/A
#PRAIRIE CITY   N/A         29  25  85  CALM    30.08R
#SENECA         N/A         24  N/A N/A CALM    N/A
#SENECA 9NW     N/A         26  25  96  CALM    29.97R
$$

ORZ049-110410-
GRANDE RONDE VALLEY

CITY            SKY/WX      TMP DP  RH  WIND    PRES   REMARKS
LA GRANDE       MOCLDY      30  21  69  E8      29.90S
#COVE           N/A         33  30  89  CALM    29.96R
#COVE SCHOOL    N/A         33  28  82  E1      29.94R
#COVE 6NW       N/A         30  27  88  CALM    30.01R
#ELGIN 3N       N/A         28  20  71  CALM    29.89S
#ELGIN 1E       N/A         32  26  78  CALM    N/A
#IMBLER SCHOOL  N/A         30  27  88  CALM    29.89R
#ISLAND CITY 4N N/A         40  40  100 CALM    29.98R
#UNION 1S       N/A         31  26  81  S5      30.02R
$$

ORZ050-110410-
WALLOWA COUNTY

CITY            SKY/WX      TMP DP  RH  WIND    PRES   REMARKS
#IMNAHA 10S     N/A         30  25  81  SW3     29.92R
#JOSEPH 3N      N/A         18  11  74  CALM    29.92R
#JOSEPH 3W      N/A         24  19  81  CALM    29.72S
#LOSTINE        N/A         26  21  81  SE3     29.83S
#LOSTINE 3SE    N/A         25  21  84  SW6     29.90S
#MT HOWARD 8000 N/A         15   9  77  W9      29.72R
#PROMISE 1S     N/A         30  25  81  E2      30.09R
#WALLOWA SCHOOL N/A         24  21  88  CALM    29.90R



$$



USA.gov is the U.S. government's official web portal to all federal, state and local government web resources and services.